Location: ???? ????
(31.2831°N, 45.5190°E)
Time: 14:21:44
(UTC+00:00)

Envisat - Visible Passes

Search period start: 23 September 2021 00:00
Search period end: 03 October 2021 00:00
Orbit: 764 x 766 km, 98.2° (Epoch: 22 September)

Date Brightness Start Highest point End Pass type
(mag) Time Alt. Az. Time Alt. Az. Time Alt. Az.
23 Sep 3.3 01:56:48 10° NNE 02:01:54 74° ESE 02:06:57 10° S visible
24 Sep 5.0 01:20:34 10° NE 01:24:59 29° E 01:29:22 10° SSE visible
25 Sep 6.1 00:46:09 10° ENE 00:47:53 12° E 00:49:37 10° ESE visible
25 Sep 3.1 02:22:11 10° N 02:27:11 59° WNW 02:32:09 10° SSW visible
26 Sep 3.7 01:45:23 10° NNE 01:50:23 56° E 01:55:21 10° S visible
27 Sep 5.4 01:09:27 10° NE 01:13:25 23° E 01:17:21 10° SSE visible
28 Sep 3.0 02:10:37 10° N 02:15:42 77° WNW 02:20:46 10° SSW visible
29 Sep 4.3 01:34:02 10° NNE 01:38:51 42° E 01:43:38 10° S visible
30 Sep 5.8 00:58:32 10° NE 01:01:50 17° E 01:05:06 10° SE visible
01 Oct 3.1 01:59:06 10° NNE 02:04:12 81° ESE 02:09:17 10° S visible
02 Oct 4.8 01:22:46 10° NE 01:27:18 32° E 01:31:48 10° SSE visible
